Tracking 25949 objects as of 8-Aug-2022
HD Live streaming from Space Station
objects crossing your sky now

COSMOS 1275 DEB

Track COSMOS 1275 DEB now!
10-day predictions


NORAD ID: 42175
Int'l Code: 1981-053SP
Perigee: 976.8 km
Apogee: 1,188.0 km
Inclination: 83.0 °
Period: 106.7 minutes
Semi major axis: 7453 km
RCS: Unknown
Launch date: June 4, 1981
Source: Commonwealth of Independent States (former USSR) (CIS)
Launch site: PLESETSK MISSILE AND SPACE COMPLEX (PKMTR)

Note: This is SATELLITE DEBRIS
aabbcc
Your satellite tracking list
Your tracking list is empty




NASA's NSSDC Master Catalog

Two Line Element Set (TLE):
1 42175U 81053SP  22219.40523473  .00000083  00000-0  10192-3 0  9997
2 42175  83.0282  92.7555 0141664  37.3444  82.8402 13.49188735429169
Source of the keplerian elements: AFSPC